Погода в Партизанске

Погода в Партизанске : погода сейчас, прогноз погоды и архив. Всё, что Вы хотите узнать о погоде в Партизанске!

Хотите узнать прогноз погоды в Партизанске? Тогда Вам сюда: Погода в Партизанске

Поиск расширенной информации на нашем сайте:

Полезная информация: Купить винтовые сваи заборы на винтовых сваях.

Другие новости

Новости СМИ2

Главная страница сайта

Новости сайта

02.10.2013

Напоминаем, что на нашем новом сайте вы можете получить высокодетализированные прогнозы погоды по пунктам России, СНГ и мира (включающие важные для авиации метеовеличины, такие как направление и скорость ветра, видимость, явления погоды, количество и форма облачности, нижняя и верхняя граница облачности), а также ознакомиться с разнообразными материалами по авиационной метеорологии и подборкой полезных ссылок на эту тему.

Сайт Метеоцентр.Азия посвящён разработке технологий оптимизации авиаметеорологического обслуживания, включая проектирование и перспективное создание нескольких автоматизированных авиаметеорологических систем:
- система выпуска высокодетальных прогностических карт явлений погоды для нижнего воздушного пространства по России и ближнему зарубежью;
- система верификации прогнозов TAF (выпускаемых синоптиками официальных АМСГ РФ и ближнего зарубежья) и AUTOTAF (выпускаемых сайтом Метеоцентр.Азия) - выявление ошибок, онлайн-сопоставление с фактической погодой METAR, автоматическое внесение коррективов в прогнозы при резком отклонении фактической погоды от прогноза, подсчёт оправдываемости прогнозов по элементам и в целом;
- система обработки, анализа и отображения авиаметеорологической информации для применения провайдерами метеорологической информации.

Рекомендуем: Применяйте для похудения пластыри SOSO - новейшая разработка!

Погода в Партизанске - сегодня

Время (UTC), дата Ветер
(°,м/с) 
Видим.   Явления Облачность Т
(°С)
Тd
(°С)
f(%) Тe
(°С)
Pmin
(гПа)
dP
(гПа)
Po
(мм)
O2
(г/м3)
Тmin Tmax R s Состояние
почвы
03 25.02.17 360 (С) 3{10}  20000 м  {ливн. осадки}  6/6 600 м кучево-дожд. 
[Cb cap]
-1 -12.3 42 -3  1012.3  -0.7  740  300           
06 25.02.17 330 (СЗ) 4{14}  20000 м  {ливн. осадки}  6/6 600 м кучево-дожд. 
[Cb cap]
-1.9 -16.9 31 -5  1011.8  -0.6  739  301           
09 25.02.17 340 (С) 20000 м    3/3 1000 м 
[Sc diur, vesp]
-3.5 -18.6 30 -7  1013.3  1.3  740  304    -0.4  0.0     
12 25.02.17 010 (С) 20000 м    ясно 
-6.5 -17.4 42 -6  1016.5  2.8  742  308           
15 25.02.17 350 (С) 20000 м    ясно 
-7.9 -19.3 39 -8  1017.9  1.2  743  310           
18 25.02.17 280 (З) 20000 м    ясно 
-5.3 -19.9 31 -8  1017.6  743  307           
21 25.02.17 350 (С) 4{11}  20000 м    1/0 средняя 
[Ac lent]
-9.2 -16.7 54 -13  1020.5  2.4  745  312  -11.3      10  равномерный
мокрый или
старый снег
100% 
00 26.02.17 340 (С) 7-12{14}  20000 м    ясно 
-8.5 -20.6 37 -14  1023  2.5  747  312           
03 26.02.17 350 (С) 3{15}  20000 м    3/1 1000 м верхняя 
[Cu hum|Ci fib]
-4.3 -20.1 28 -7  1022.7  0.2  747  307           
06 26.02.17 350 (С) 8-14{14}  20000 м    1/0 
-3.5 -20.9 25 -8  1022.6  -0.1  747  306           
09 26.02.17 020 (С) 5{14}  20000 м    1/0 верхняя 
[Ci fib]
-5.9 -21.7 27 -10  1025.1  2.3  749  310    -3.2       
12 26.02.17 330 (СЗ) 20000 м    ясно 
-8.9 -22.2 33 -11  1027.9  2.4  751  314           
15 26.02.17 340 (С) 20000 м    ясно 
-9.1 -23 31 -12  1029.1  1.2  752  315           
18 26.02.17 250 (З) 20000 м    ясно 
-10 -22.2 36 -12  1029.3  752  316           
21 26.02.17 330 (СЗ) 20000 м    ясно 
-14.4 -21.4 55 -14  1030.4  0.6  752  321  -15.1      равномерный
мокрый или
старый снег
100% 
00 27.02.17 010 (С) 20000 м    ясно 
-10.9 -20.4 45 -13  1030  752  317           
03 27.02.17 100 (В) 20000 м    ясно 
+0.6 -17.8 24 +1  1027.6  -1.2  751  303           
06 27.02.17 170 (Ю) 20000 м    ясно 
+1.9 -13.9 30 1025.4  -1.9  750  301           
09 27.02.17 200 (Ю) 20000 м    1/0 средняя 
[Ac lent]
-0.9 -9.7 51 -3  1026.1  0.4  750  304    +2       
12 27.02.17 150 (ЮВ) 20000 м    5/5 1000 м 
[Sc]
-3.2 -8.8 65 -3  1026.6  0.3  750  307           
15 27.02.17 180 (Ю) 4000 м  слаб. ливневой снег  10/10 600 м кучево-дожд. 
[Cb cap]
-2.7 -6.7 74 -2  1025.8  -0.7  750  306           
18 27.02.17 020 (С) 4000 м  слаб. ливневой снег  10/10 600 м кучево-дожд. 
[Cb cap]
-2.3 -5.6 78 -2  1025.2  -0.6  749  305           
21 27.02.17 тихо ()   4000 м  слаб. крупа{ливн. осадки}  10/10 600 м кучево-дожд. 
[Cb cap]
-1.2 -4 81 -1  1023.9  -1.1  748  303  -3.7    0.4  равномерный
сухой снег
100% 
00 28.02.17 150 (ЮВ) 2000 м  слаб. крупа{ливн. осадки}  10/10 300 м кучево-дожд. 
[Cb cap]
-0.3 -2.1 88 -1  1023.3  -0.5  748  302           
03 28.02.17 170 (Ю) 10 км  слаб. ливневой дождь  10/8 300 м кучево-дожд., средняя 
[Cb cap|Ac As]
+2.6 -0.3 81 +1  1021.3  -1.7  747  298           
Время (UTC), дата Ветер
(°,м/с) 
Видим.   Явления Облачность Т
(°С)
Тd
(°С)
f(%) Тe
(°С)
Pmin
(гПа)
dP
(гПа)
Po
(мм)
O2
(г/м3)
Тmin Tmax R s Состояние
почвы

Для получения пояснительной информации подведите курсор к названию столбца.

ПОГОДА в Партизанске - архив

Всё, что Вы хотите узнать о погоде в Партизанске - удобно и подробно!

Выберите нужную дату (начиная с 1 января 2015* года) и нажмите кнопку "Найти".
Будут отображены архивные сводки погоды по пункту Партизанск, начиная с указанной даты.


Отображать данные в формате CSV (для использования в таблицах Excel)


Внимание! Наш архив погоды предназначен исключительно для личного некоммерческого использования в познавательных целях. Если Вам необходимы официальные справки о состоянии погоды (для производственных, юридических, коммерческих и т.п. целей), обращайтесь в органы Росгидромета.

*Примечание: данная дата относится к архиву по метеостанциям СССР (Россия, СНГ, Балтия).
Архив по метеостанциям Зарубежной Европы и Азии (кроме Китая) хранится 10 дней, по другим регионам земного шара (Китай, Африка, Америка, Австралия, Океания) - 1 день.

Партизанск - район местоположения метеостанции


Название, широта, долгота, высота метеостанции:
Партизанск 43.2°ш. 133°д. 208 м над ур. моря [Российская Федерация]

Дополнительная информация

В oтличие oт бoльшинства пoгoдных сайтoв мы публикуем пoдрoбную метеoинфoрмацию в детальнoм прoфессиoнальнoм фoрмате.

Характеристики температуры и влажнoсти вoздуха измеряются на высoте 2 м в тени вдали oт зданий и деревьев.
Скoрoсть ветра измеряется на высoте 10 м (на урoвне рoста челoвека скoрoсть ветра ниже в 1.5-2 раза). Если метеoстанция нахoдится в гoрoде или в лесу, тo скoрoсть ветра занижена на 2-4 м/с пo сравнению с oткрытым местoм. Скoрoсть ветра над акватoриями крупных рек и oзёр, а также на вершинах хoлмoв на 2-5 м/с выше, чем в oбычных услoвиях.
Атмoсфернoе давление в разных тoчках местнoсти мoжет значительнo oтличаться oт давления на метеoстанции, в зависимoсти oт услoвий рельефа (при пoдъёме на 10 м давление пoнижается примернo на 1 мм рт.ст.).